Regional Weather Roundup
Issued by NWS Mobile, AL

Home | Current Version | Previous Version | Text Only | Print | Product List | Glossary On
Versions: 1 2 3 4 5 6 7 8 9 10 11 12 13 14 15 16 17 18 19 20 21 22 23 24 25 26 27 28 29 30 31 32 33 34 35 36 37 38 39 40 41 42 43 44 45 46 47 48 49 50
000
ASUS44 KMOB 290012
RWRMOB
REGIONAL WEATHER ROUNDUP
NATIONAL WEATHER SERVICE MOBILE AL
700 PM CDT SUN AUG 28 2016

NOTE: "FAIR" INDICATES FEW OR NO CLOUDS BELOW 12,000 FEET WITH NO
      SIGNIFICANT WEATHER AND/OR OBSTRUCTIONS TO VISIBILITY.

  * THESE STATIONS ARE PART OF THE UNIVERSITY OF SOUTH ALABAMA
    MESONET AND ARE NOT UNDER NWS OR FAA QUALITY CONTROL.

ALZ061>064-290100-
COASTAL ALABAMA

CITY           SKY/WX    TMP DP  RH WIND       PRES   REMARKS
MOBILE REG APT CLOUDY    74  73  97 NW5       29.98F
6HR MIN TEMP:  74; 6HR MAX TEMP:  90; 6HR PCP:  0.14;

BROOKLEY FIELD CLOUDY    75  75 100 CALM      29.98F
6HR MIN TEMP:  75; 6HR MAX TEMP:  90; 6HR PCP:  0.75;

USA CAMPUS*    NOT AVBL
DOG RIVER*     NOT AVBL


CITY           SKY/WX    TMP DP  RH WIND       PRES   REMARKS
MOUNT VERNON*  NOT AVBL
SARALAND*      NOT AVBL
BAY MINETTE*   NOT AVBL
LOXLEY*        NOT AVBL
ROBERTSDALE*   NOT AVBL
FAIRHOPE*      NOT AVBL
ELBERTA*       NOT AVBL
FOLEY*         NOT AVBL
GRAND BAY*     NOT AVBL
DAUPHIN ISLND* NOT AVBL
BON SCOUR NWR* NOT AVBL
GULF SHORES    CLOUDY    80  76  90 CALM      29.97S

$$

ALZ051>060-290100-
INTERIOR SOUTHWEST AND SOUTH CENTRAL ALABAMA

CITY           SKY/WX    TMP DP  RH WIND       PRES   REMARKS
GREENVILLE     CLOUDY    87  69  54 CALM      29.99S
6HR MIN TEMP:  87; 6HR MAX TEMP:  94;

EVERGREEN      CLOUDY    83  78  85 CALM      29.99R
6HR MIN TEMP:  83; 6HR MAX TEMP:  93; 6HR PCP: TRACE;

CASTLEBERRY*   NOT AVBL
ATMORE*        NOT AVBL
DIXIE*         NOT AVBL
ANDALUSIA/OPP  MOCLDY    85  74  69 CALM      29.98R
6HR MIN TEMP:  85; 6HR MAX TEMP:  99; 6HR PCP:  0.01;

ANDALUSIA*     NOT AVBL
FLORALA APT    CLOUDY    78  76  93 CALM      30.00R
6HR MIN TEMP:  75; 6HR MAX TEMP:  92; 6HR PCP:  0.47;

FLORALA*       NOT AVBL

$$

FLZ001>006-290100-
WESTERN FLORIDA PANHANDLE

CITY           SKY/WX    TMP DP  RH WIND       PRES   REMARKS
PENSACOLA      CLOUDY    85  74  69 SW3       29.97R
6HR MIN TEMP:  83; 6HR MAX TEMP:  90;

NAS PENSACOLA  CLOUDY    83  77  82 CALM      29.96S
6HR MIN TEMP:  83; 6HR MAX TEMP:  89;

MILTON         CLOUDY    79  77  94 CALM      29.98R
6HR MIN TEMP:  78; 6HR MAX TEMP:  91; 6HR PCP:  0.08;

WHTNG S FIELD  CLOUDY    82  79  90 CALM      29.98
6HR MIN TEMP:  80; 6HR MAX TEMP:  93; 6HR PCP:  0.39;



CITY           SKY/WX    TMP DP  RH WIND       PRES   REMARKS
WALNUT HILL*   NOT AVBL
JAY*           NOT AVBL
DUKE FIELD     MOCLDY    79  74  85 W6        29.96S
CRESTVIEW      CLOUDY    83  75  77 W5        29.99R
6HR MIN TEMP:  83; 6HR MAX TEMP:  95;

VALPARAISO     MOCLDY    84  73  70 NW3       29.96R
6HR MIN TEMP:  84; 6HR MAX TEMP:  91;

DESTIN         CLOUDY    88  77  69 NW3       29.96R HX 100
6HR MIN TEMP:  83; 6HR MAX TEMP:  91; 6HR PCP:  0.11;


$$

MSZ076-079-290100-
INTERIOR SOUTHEAST MISSISSIPPI

CITY           SKY/WX    TMP DP  RH WIND       PRES   REMARKS
LEAKESVILLE*   NOT AVBL
AGRICOLA*      NOT AVBL

$$

MARINE OBSERVATIONS

STATION/POSITION TIME  TEMP    WIND        PRES    WAVE
                       AIR SEA DIR/SP/G            HT/PER
                 (UTC) (F)     (DEG/KT/KT) (MB)    (FT/S)
PASCAGOULA       2300   74     270/  3/  4 1014.9F
PETIT BOIS ISLND 2300   78      10/ 12/ 14 1015.9F
GRAND BAY        2245   74     310/  7     1017.0R
KATRINA CUT      2300   77     330/ 12     1015.9S
CEDAR POINT      2300   78     320/  7     1014.9F
E DAUPHIN ISLAND 2300   82     350/  6/  7 1014.7F
MIDDLE BAY LIGHT 2300   79     320/  4     1014.9F
USCG MOBILE BAY  2300   76 87  280/  4/  5 1015.7F
STATE DOCKS      2300   77 88              1015.1F
MEAHER PARK      2300   79     220/  4     1015.6R
WEEKS BAY        2200   80                   N/A
FORT MORGAN      2300   81      30/  5/  8 1014.4F
12 S ORANGE BCH  2350   84 86  110/  2/  4 1014.3F   3/ 5
PENSACOLA BAY    2300   87 87  180/  2/  4 1014.7F
64 S DAUPHIN ISL 2300   80 86   30/  4/  6 1014.0S
67 S FORT MORGAN 2330   80      20/  6     1013.5F

$$

SELECTED LOCATIONS ACROSS THE REGION

CITY           SKY/WX    TMP DP  RH WIND       PRES   REMARKS
NEW ORLEANS    CLOUDY    85  73  67 E9        29.95S
GULFPORT       CLOUDY    79  77  94 CALM      29.96F
PASCAGOULA AP  CLOUDY    73  73 100 N6        29.97F
PASCAGOULA*    NOT AVBL
HATTIESBURG    CLOUDY    85  76  74 S6        29.98S
LAUREL           N/A     82  73  74 CALM      30.01
MERIDIAN       PTCLDY    89  70  53 E6        29.99F
JACKSON        MOCLDY    85  72  65 NE5       29.99R
MONTGOMERY     CLEAR     89  67  47 E6        30.00R
TROY           CLEAR     87  70  56 NE3       30.00R
KINSTON*       NOT AVBL
GENEVA*        NOT AVBL
ASHFORD*       NOT AVBL
DOTHAN         CLEAR     82  74  76 NE3       30.01S
PANAMA CITY    TSTM      77  75  93 NE12G31   29.97S

$$




USA.gov is the U.S. government's official web portal to all federal, state and local government web resources and services.